Regional Weather Roundup
Issued by NWS

Home | Current Version | Previous Version | Graphics & Text | Print | Product List | Glossary Off
Versions: 1 2 3 4 5 6 7 8 9 10 11 12 13 14 15 16 17 18 19 20 21 22 23 24 25 26 27 28 29 30 31 32 33 34 35 36 37 38 39 40 41 42 43 44 45 46 47 48 49 50

000
ASUS43 KLMK 291902
RWRKY
KENTUCKY REGIONAL WEATHER ROUNDUP
NATIONAL WEATHER SERVICE LOUISVILLE KY
300 PM EDT MON MAY 29 2017

NOTE "FAIR" INDICATES FEW OR NO CLOUDS BELOW 12,000 FEET
WITH NO SIGNIFICANT WEATHER AND/OR OBSTRUCTIONS TO VISIBILITY.

KYZ001>023-026-027-061>063-070>075-292000-
WESTERN AND SOUTH CENTRAL KENTUCKY

CITY           SKY/WX    TMP DP  RH WIND       PRES   REMARKS
PADUCAH        SUNNY     84  55  36 SW12      29.97F
HENDERSON      MOSUNNY   82  58  43 SW17      29.95F
OWENSBORO      SUNNY     83  56  39 W14G20    29.96F
HOPKINSVILLE   MOSUNNY   82  57  42 SW10      29.98F
BOWLING GREEN  PTSUNNY   81  57  43 SW12      29.99F
GLASGOW        NOT AVBL
$$

KYZ024-025-028>034-038-045-046-053-292000-
NORTH CENTRAL KENTUCKY

CITY           SKY/WX    TMP DP  RH WIND       PRES   REMARKS
LOUISVILLE/SDF MOSUNNY   83  55  38 W12G25    29.95F
LOUISVILLE/LOU MOSUNNY   83  56  39 W12       29.96F
FORT KNOX      MOSUNNY   80  58  46 W10       29.96S
$$

KYZ035>037-039>044-047>052-055>060-089>105-292000-
NORTHEAST KENTUCKY

CITY           SKY/WX    TMP DP  RH WIND       PRES   REMARKS
LEXINGTON      MOSUNNY   81  56  42 SW8       30.00R
COVINGTON      PTSUNNY   80  53  39 W12G18    29.95S
FRANKFORT      MOSUNNY   82  56  40 SW8       29.97S
$$

KYZ054-064>069-076>088-106>120-292000-
SOUTHEAST KENTUCKY

CITY           SKY/WX    TMP DP  RH WIND       PRES   REMARKS
JACKSON        CLOUDY    76  59  55 VRB6      30.03S
LONDON         PTSUNNY   75  57  53 S10       30.04S
SOMERSET       PTSUNNY   73  55  53 SW6       30.04S
MIDDLESBORO    CLOUDY    75  62  63 SE3       30.03F
MONTICELLO     PTCLDY    78  63  59 E7G20     30.04F
$$





USA.gov is the U.S. government's official web portal to all federal, state and local government web resources and services.